Location: Lake Arresoe
(56.0000°N, 12.5000°E)
Time: 11:27:11
(UTC+02:00)

Resurs 1-4 Rocket - Pass Details

Date: 17 August 2020
Orbit: 799 x 815 km, 98.6° (Epoch: 23 September)

Event Time Altitude Azimuth Distance (km) Brightness Sun altitude
Rises 04:21:05 0° 13° (NNE) 3,333 6.3 -10.5°
Reaches altitude 10° 04:23:38 10° 4° (N) 2,396 5.3 -10.2°
Maximum altitude 04:28:16 32° 303° (WNW) 1,347 3.1 -9.8°
Enters shadow 04:32:40 11° 242° (WSW) 2,306 3.8 -9.3°
